Miscellaneous Local Product
Issued by NWS Hastings, NE

Home | Current Version | Previous Version | Text Only | Print | Product List | Glossary On
Versions: 1 2 3 4 5 6 7 8 9 10 11 12 13 14 15 16 17 18 19 20 21 22 23 24 25 26 27 28 29 30 31 32 33 34 35 36 37 38 39 40 41 42 43 44 45 46 47 48 49 50
000
AXUS43 KGID 060002
MISGRI

GID CWA HOURLY WEATHER ROUNDUP
NATIONAL WEATHER SERVICE HASTINGS NE
700 PM CDT SUN JUL 05 2015

NOTE: "FAIR" INDICATES FEW OR NO CLOUDS BELOW 12,000 FEET WITH NO
SIGNIFICANT WEATHER AND/OR OBSTRUCTIONS TO VISIBILITY.

...SOUTH CENTRAL NEBRASKA...

CITY           SKY/WX    TMP DP  RH WIND       PRES   REMARKS
GRAND ISLAND   SUNNY     93  71  48 SE12      29.73F HX 100
HASTINGS       SUNNY     94  66  39 S12G24    29.74S HX  97
KEARNEY        MOSUNNY   93  70  46 S14       29.72S HX  99
ORD            SUNNY     93  70  46 SE10      29.72F HX  99
YORK           SUNNY     91  72  52 S12G22    29.75F HX  98
AURORA         SUNNY     91  69  48 SE13G23   29.74F HX  96
LEXINGTON      PTSUNNY   95  70  43 SE10      29.71S HX 101
HOLDREGE       MOSUNNY   94  63  34 S10       29.72F HX  95
HEBRON         SUNNY     94  63  35 S12G18    29.76F HX  95

...NEBRASKA PANHANDLE...

CITY           SKY/WX    TMP DP  RH WIND       PRES   REMARKS
CHADRON        CLOUDY    78  66  66 N20G30    29.89R
ALLIANCE       CLOUDY    78  68  71 N16G29    29.86R
SCOTTSBLUFF    TSTM      65  51  59 NW20G29   29.96F
SIDNEY         CLOUDY    74  60  61 NW25G37   29.89R

...WESTERN AND NORTH CENTRAL NEBRASKA...

CITY           SKY/WX    TMP DP  RH WIND       PRES   REMARKS
VALENTINE      CLOUDY    88  69  53 SE9       29.74F HX  92
AINSWORTH      CLOUDY    85  70  60 SE6       29.76F HX  90
ONEILL         MOSUNNY   90  73  57 SE8       29.77F HX  98
BROKEN BOW     MOSUNNY   90  72  55 SE7       29.74S HX  97
IMPERIAL       CLOUDY    96  47  18 S15G23    29.73F HX  92
NORTH PLATTE   CLOUDY    91  70  49 E8        29.73S HX  96
MCCOOK         CLOUDY    83  59  44 E21G29    29.73R

...EASTERN NEBRASKA...

CITY           SKY/WX    TMP DP  RH WIND       PRES   REMARKS
NORFOLK        MOSUNNY   89  76  65 SE13      29.77F HX 100
SO SIOUX CITY  PTSUNNY   88  74  63 SE12      29.78F HX  96
TEKAMAH        PTSUNNY   90  75  61 SE17      29.78F HX 100
COLUMBUS       MOSUNNY   90  73  58 SE13G18   29.77F HX  98
ALBION         MOSUNNY   90  72  55 SE12G20   29.75F HX  96
OMAHA EPPLEY   PTSUNNY   89  74  60 SE21G28   29.80F HX  98
OFFUTT AFB     MOSUNNY   89  74  62 SE16G24   29.79F HX  98
MILLARD        MOSUNNY   90  75  62 SE14G23   29.79F HX 100
LINCOLN        MOSUNNY   91  74  57 SE20      29.78F HX 100
NEBRASKA CITY  SUNNY     88  65  45 S18G26    29.83F HX  90
BEATRICE       SUNNY     91  73  56 SE20      29.79F HX  99
FALLS CITY     SUNNY     90  70  51 S15       29.83F HX  95

...NORTHERN KANSAS...

CITY           SKY/WX    TMP DP  RH WIND       PRES   REMARKS
GOODLAND       CLOUDY    95  54  25 S24G30    29.77F HX  93
HILL CITY      PTSUNNY   98  58  26 S24G32    29.75R HX  97
NORTON         CLEAR     93  52  24 S20       29.72F HX  90
PHILLIPSBURG   SUNNY    100  55  22 S20G26    29.73R HX  99
SMITH CENTER   SUNNY     97  57  26 S23G30    29.74F HX  95
HAYS           MOSUNNY   99  57  25 S23G31    29.78S HX  97
RUSSELL        LGT RAIN  95  61  32 S24G31    29.77S HX  95
CONCORDIA      SUNNY     95  64  35 S15G23    29.77F HX  97
SALINA         SUNNY     99  63  30 S16G26    29.79S HX 101
TOPEKA         SUNNY     91  73  55 SE13      29.85F HX  99



USA.gov is the U.S. government's official web portal to all federal, state and local government web resources and services.